Find Starlink 30342

NORAD ID: 57705 Int'l Des: 2023-129 Owner: SPXS Country: US Constellation: starlink decayed
LEOCIRCULAR

Re-entered — 27. Aug. 2025

3D-Globus wird geladen...

About Starlink 30342

Starlink 30342 (NORAD 57705) is a starlink constellation satellite (v2 mini) launched Aug 27, 2023 by SPXS of US. It re-entered the atmosphere on Aug 27, 2025. with a mass of 730.00 kg.

Über Starlink 30342

Beschreibung wird geladen...

Höhenverlauf

Loading altitude history...

Zweizeiliger Elementsatz

1 57705U 23129H 25234.07834418 .01091976 73007-3 10496-2 0 9997
2 57705 42.9964 107.8822 0007149 237.1973 122.8221 16.10932825110828
Epoch: 22. Aug. 2025 • Age: 7246 hours

Aktueller Status

Position data unavailable
Startdatum 27. Aug. 2023
Alter 2.8 years
Verglühungsdatum 27. Aug. 2025
Typ internet

Technische Details

Klassifizierung Payload
Masse 730.00 kg
Trockenmasse 700.00 kg
Gesamtmasse 730.00 kg
Länge 0.30 m
Durchmesser 4.10 m
Spannweite 29.00 m
Form Box + pan
Hersteller SPXS
Bus-Typ Starlink V2M
Phasenstatus Reentered
Besitzer/Staat SPXS/US

Most Searched